Volver al catálogo

HULIANWANG DIGUI-133

ActivoComunicacionesLEO
NORAD 67241·PAYLOAD·🇨🇳 China

Lanzado Dec 25, 2025 desde Wenchang Space Launch Site

Loading…

Próximos Pases (próximas 24 horas)

TLE

ActualizadoSource: Space-Track

Época: Sep 14, 2026, 23:25 UTC

1 67241U 25311F   26257.97626656 -.00000075  00000-0  10621-3 0  9997
2 67241  50.0099 153.8093 0000256 320.1927  39.8927 13.29327516 35286

Sigue HULIANWANG DIGUI-133 en tiempo real con AllMySat

Download on the App Store